EHI
0 0 0 0 0 0 0 0 0 0 0 0 0 0 0 0 0 0 0 0 0 0 0 0 0 0 0 0 0 0 0 0 0 0 0 0 0 0 0 0 0 0 0
0 0 0 0 0 0 0 0 0 0 0 0 0 0 0 0 0 0 0 0 0 0 0 0 0 0 0 0 0 0 0 0 0 0 0 0 0 0 0 0 0 0 0
0 0 0 0 0 0 0 0 0 0 0 0 0 0 0 0 0 0 0 0 0 0 0 0 0 0 0 0 0 0 0 0 0 0 0 0 0 0 0 0 0 0 0
0 0 0 0 0 0 0 0 0 0 0 0 0 0 0 0 0 0 0 0 0 0 0 0 0 0 0 0 0 0 0 0 0 0 0 0 0 0 0 0 0 0 0
0 0 0 0 0 0 0 0 0 0 0 0 0 0 0 0 0 0 0 0 0 0 0 0 0 0 0 0 0 0 0 0 0 0 0 0 0 0 0 0 0 0 0
0 0 0 0 0 0 0 0 0 0 0 0 0 0 0 0 0 0 0 0 0 0 0 0 0 0 0 0 0 0 0 0 0 0 0 0 0 0 0 0 0 0 0
0 0 0 0 0 0 0 0 0 0 0 0 0 0 0 0 0 0 0 0 0 0 0 0 0 0 0 0 0 0 0 0 0 0 0 0 0 0 0 0 0 0 0
0 0 0 0 0 0 0 0 0 0 0 0 0 0 0 0 0 0 0 0 0 0 0 0 0 0 0 0 0 0 0 0 0 0 0 0 0 0 0 0 0 0 0
0 0 0 0 0 0 0 0 0 0 0 0 0 0 0 0 0 0 0 0 0 0 0 0 0 0 0 0 0 0 0 0 0 0 0 0 0 0 0 0 0 0 0
0 0 0 0 0 0 0 0 0 0 0 0 0 0 0 0 0 0 0 0 0 0 0 0 0 0 0 0 0 0 0 0 0 0 0 0 0 0 0 0 0 0 0
0 0 0 0 0 0 0 0 0 0 0 0 0 0 0 0 0 0 0 0 0 0 0 0 0 0 0 0 0 0 0 0 0 0 0 0 0 0 0 0 0 0 0
0 0 0 0 0 0 0 0 0 0 0 0 0 0 0 0 0 0 0 0 0 0 0 0 0 0 0 0 0 0 0 0 0 0 0 0 0 0 0 0 0 0 0
0 0 0 0 0 0 0 0 0 0 0 0 0 0 0 0 0 0 0 0 0 0 0 0 0 0 0 0 0 0 0 0 0 0 0 0 0 0 0 0 0 0 0
0 0 0 0 0 0 0 0 0 0 0 0 0 0 0 0 0 0 0 0 0 0 0 0 0 0 0 0 0 0 0 0 0 0 0 0 0 0 0 0 0 0 0
0 0 0 0 0 0 0 0 0 0 0 0 0 0 0 0 0 0 0 0 0 0 0 0 0 0 0 0 0 0 0 0 0 0 0 0 0 0 0 0 0 0 0
0 0 0 0 0 0 0 0 0 0 0 0 0 0 0 0 0 0 0 0 0 0 0 0 0 0 0 0 0 0 0 0 0 0 0 0 0 0 0 0 0 0 0
0 0 0 0 0 0 0 0 0 0 0 0 0 0 0 0 0 0 0 0 0 0 0 0 0 0 0 0 0 0 0 0 0 0 0 0 0 0 0 0 0 0 0
0 0 0 0 0 0 0 0 0 0 0 0 0 0 0 0 0 0 0 0 0 0 0 0 0 0 0 0 0 0 0 0 0 0 0 0 0 0 0 0 0 0 0
0 0 0 0 0 0 0 0 0 0 0 0 0 0 0 0 0 0 0 0 0 0 0 0 0 0 0 0 0 0 0 0 0 0 0 0 0 0 0 0 0 0 0
0 0 0 0 0 0 0 0 0 0 0 0 0 0 0 0 0 0 0 0 0 0 0 0 0 0 0 0 0 0 0 0 0 0 0 0 0 0 0 0 0 0 0
0 0 0 0 0 0 0 0 0 0 0 0 0 0 0 0 0 0 0 0 0 0 0 0 0 0 0 0 0 0 0 0 0 0 0 0 0 0 0 0 0 0 0
0 0 0 0 0 0 0 0 0 0 0 0 0 0 0 0 0 0 0 0 0 0 0 0 0 0 0 0 0 0 0 0 0 0 0 0 0 0 0 0 0 0 0
0 0 0 0 0 0 0 0 0 0 0 0 0 0 0 0 0 0 0 0 0 0 0 0 0 0 0 0 0 0 0 0 0 0 0 0 0 0 0 0 0 0 0
0 0 0 0 0 0 0 0 0 0 0 0 0 0 0 0 0 0 0 0 0 0 0 0 0 0 0 0 0 0 0 0 0 0 0 0 0 0 0 0 0 0 0
0 0 0 0 0 0 0 0 0 0 0 0 0 0 0 0 0 0 0 0 0 0 0 0 0 0 0 0 0 0 0 0 0 0 0 0 0 0 0 0 0 0 0
0 0 0 0 0 0 0 0 0 0 0 0 0 0 0 0 0 0 0 0 0 0 0 0 0 0 0 0 0 0 0 0 0 0 0 0 0 0 0 0 0 0 0
Wind_Speed
3 3 3 3 3 3 4 4 4 5 6 6 5 6 6 6 6 5 5 11 15 17 19 20 21 20 18 17 16 16 15 15 17 18 19 20 21 24 27 28 28 29 29
5 5 5 5 5 4 4 4 5 5 4 5 6 6 5 6 6 6 5 7 13 16 19 21 22 23 23 23 21 21 20 19 19 19 19 19 19 20 21 24 27 29 31
7 6 5 5 4 4 4 5 5 5 5 6 6 6 5 6 5 6 5 4 6 11 18 21 22 22 22 22 22 22 22 22 21 21 21 21 20 19 20 20 21 23 27
8 7 5 4 4 4 4 4 4 4 5 5 5 5 5 5 5 5 4 5 4 5 11 19 20 20 21 22 22 23 23 22 22 22 22 22 22 21 22 22 21 21 21
8 7 5 4 4 5 5 4 4 3 4 5 5 5 4 3 3 5 6 6 6 5 5 13 19 19 19 21 22 23 23 23 23 22 22 22 22 22 23 23 23 23 22
7 6 5 5 5 4 4 4 4 3 2 4 5 6 5 2 2 4 7 6 7 7 8 9 9 12 19 22 23 24 25 24 24 24 23 23 23 23 23 23 23 23 23
7 6 5 5 5 4 4 4 3 4 3 4 3 5 5 4 2 6 5 5 7 8 9 9 8 6 8 19 23 26 26 25 25 24 24 24 24 24 24 24 25 25 25
6 6 6 5 4 4 5 5 4 3 3 3 3 3 5 6 5 7 3 4 5 7 9 10 9 6 6 6 15 25 24 25 25 25 25 26 26 26 27 27 27 27 27
6 6 6 5 4 4 3 3 3 3 2 3 2 3 3 4 7 4 3 3 5 6 5 6 7 7 8 6 7 14 22 24 26 27 27 27 27 28 28 29 29 29 28
6 6 6 5 4 3 3 3 2 2 2 2 2 2 1 3 3 7 5 4 6 6 6 7 7 7 7 6 8 16 22 25 27 28 28 28 29 29 30 30 30 30 30
6 5 5 4 3 2 2 3 3 3 2 2 2 2 2 2 4 5 9 7 6 6 6 6 6 6 7 5 4 13 25 26 27 28 29 30 30 30 30 31 31 31 31
4 4 4 3 2 2 2 2 3 3 3 2 2 2 2 3 4 4 8 10 8 6 7 6 6 6 5 4 9 21 25 27 28 29 30 30 31 31 31 31 31 31 31
2 2 2 2 2 2 3 3 3 4 3 3 3 3 3 4 4 4 8 13 14 7 5 5 5 5 6 4 6 20 23 26 27 29 30 32 32 32 31 31 31 31 31
2 1 1 1 2 3 4 4 3 3 3 4 5 5 4 4 3 4 6 11 16 11 6 5 4 5 5 4 9 22 12 24 27 29 31 32 32 31 31 31 31 31 31
2 2 1 2 3 4 4 4 3 5 5 4 5 5 3 3 4 5 5 6 9 17 15 6 5 5 5 5 13 10 8 19 29 30 31 31 32 32 32 31 31 32 32
2 2 3 3 4 4 4 4 5 5 6 5 4 4 4 4 5 5 5 6 7 11 16 9 7 6 7 10 17 11 9 26 27 29 31 32 32 32 32 32 33 33 34
2 2 3 4 5 5 5 5 6 7 6 6 5 5 6 6 6 6 6 7 7 8 14 15 11 8 8 9 11 8 9 9 12 26 31 33 34 34 34 33 34 34 34
2 3 3 4 5 6 6 6 7 7 7 7 6 6 6 7 8 8 7 8 9 9 11 16 14 10 11 11 10 8 10 12 10 24 32 33 33 33 33 33 33 33 33
3 3 4 5 6 6 7 7 7 7 7 7 6 6 6 7 9 9 10 10 9 10 8 12 15 13 11 9 9 10 12 10 13 18 24 26 29 31 32 33 33 32 32
3 4 5 5 6 7 7 7 7 7 7 7 6 6 7 8 10 11 10 9 9 11 10 12 13 13 11 7 8 11 14 8 10 12 18 21 25 29 31 32 32 32 32
4 4 5 6 6 6 7 10 8 7 7 7 6 7 8 14 19 16 14 12 12 12 12 13 14 13 10 9 10 10 15 13 10 9 10 10 11 11 14 22 27 30 31
4 5 5 6 7 8 16 20 16 8 7 7 8 8 9 12 17 23 26 26 24 18 16 15 14 14 14 12 12 13 15 16 14 6 9 13 10 12 11 10 23 31 32
4 5 5 6 7 9 19 20 21 12 8 7 8 9 11 12 18 12 19 24 21 27 25 17 15 14 16 15 16 17 15 16 17 13 12 16 10 12 12 15 29 32 33
4 4 5 6 6 10 19 20 22 9 7 8 9 10 10 11 13 19 16 14 13 12 15 13 12 13 14 13 13 16 16 16 14 11 10 15 13 12 14 12 25 32 33
4 4 5 6 6 9 17 21 21 7 7 9 9 9 12 11 22 29 20 16 13 11 18 24 25 24 28 28 22 13 12 12 14 13 8 10 13 13 13 13 17 27 29
4 5 6 6 7 7 15 21 22 6 8 8 7 8 15 21 27 28 17 12 14 15 14 14 16 19 17 17 22 14 12 13 14 12 8 7 11 11 10 8 8 9 13
Wind_Direction
127 96 71 52 40 40 47 41 30 25 18 7 4 0 357 355 350 348 344 355 4 11 13 14 11 6 354 343 335 329 322 315 308 303 298 294 286 276 267 260 256 255 253
94 79 65 55 44 41 48 48 35 28 16 4 357 353 353 354 351 352 360 6 10 15 17 18 15 14 14 11 7 5 2 358 352 346 336 326 314 305 297 285 273 263 257
84 82 71 59 41 37 47 46 31 30 20 6 349 344 349 351 353 3 7 8 2 12 17 14 12 9 8 4 1 360 358 355 351 345 340 335 331 324 314 306 300 290 276
85 82 73 59 45 42 40 42 26 21 12 358 338 329 339 342 355 10 2 7 5 10 11 11 10 6 5 2 0 358 355 351 347 343 338 334 330 326 321 315 309 303 299
80 81 72 58 52 48 36 34 33 27 10 348 323 315 327 332 352 7 2 11 7 6 8 2 4 359 0 359 357 352 349 345 341 337 334 332 327 325 321 317 314 310 306
75 77 71 58 56 53 36 25 17 12 8 336 316 313 310 312 351 7 5 4 356 3 3 358 355 349 356 354 351 346 343 338 334 330 328 326 323 320 316 313 312 310 309
72 70 69 56 53 57 46 29 11 1 348 342 341 322 322 334 351 2 355 1 352 358 352 346 341 338 348 349 346 340 336 332 329 326 323 320 316 314 311 308 305 303 302
68 71 67 59 50 51 40 32 24 7 344 1 357 349 341 335 346 327 321 357 354 343 333 335 327 334 342 340 332 333 330 329 326 322 318 314 311 308 305 303 300 298 297
69 69 69 68 57 54 40 23 23 27 345 335 11 63 10 315 309 297 318 338 332 313 315 314 313 323 323 324 317 324 326 325 321 318 314 311 309 306 303 301 299 297 296
70 67 67 67 59 51 35 4 23 0 11 356 349 46 205 240 299 308 307 312 308 307 297 304 305 297 300 299 310 326 323 320 315 312 311 309 306 303 301 299 298 297 296
65 64 63 57 46 31 12 1 1 5 8 1 336 317 296 258 231 262 294 304 304 293 289 288 288 288 290 294 308 317 320 315 312 310 308 305 303 301 299 298 297 297 295
58 53 60 51 34 9 349 342 343 349 344 339 324 309 297 288 293 279 293 303 295 282 274 277 283 283 285 301 318 318 314 311 310 308 306 304 302 300 299 298 297 294 292
77 41 47 38 13 347 340 340 339 336 327 323 304 287 276 268 275 287 303 308 303 291 259 248 251 263 284 297 303 307 306 306 306 305 303 301 300 298 297 295 293 291 290
146 117 64 30 7 355 346 340 329 319 314 302 302 297 286 282 286 292 296 308 308 302 281 265 247 243 256 260 278 301 298 299 301 301 299 298 297 295 293 291 289 289 288
130 79 37 14 358 346 335 332 318 308 304 291 293 294 290 286 288 283 282 285 296 304 302 290 279 242 246 257 282 286 270 290 297 298 299 298 294 290 288 288 290 290 288
80 46 10 359 345 333 328 326 313 302 299 294 295 300 297 290 288 288 285 281 277 285 294 298 289 272 269 286 292 289 278 293 297 298 297 296 293 291 289 289 289 290 288
68 22 352 343 334 326 324 318 305 300 297 296 297 301 293 295 298 297 292 287 281 278 287 296 295 290 279 274 282 267 272 272 280 292 296 294 291 290 289 289 290 289 286
32 353 338 335 328 324 317 306 299 304 298 295 290 291 291 308 307 302 296 287 284 276 279 291 298 298 290 285 286 283 293 292 285 291 293 293 293 292 291 291 289 287 286
358 336 335 331 324 318 309 298 292 292 290 285 283 282 286 301 305 299 294 289 286 291 285 290 294 294 290 293 298 294 288 284 290 293 296 296 293 292 291 290 290 290 289
340 337 337 331 323 313 302 297 298 295 292 286 276 271 277 289 295 296 296 291 299 299 292 290 292 294 292 292 292 300 302 287 286 290 290 290 291 292 291 292 291 289 287
351 346 342 333 326 318 319 324 316 309 304 296 282 273 279 302 308 308 309 310 304 299 301 301 300 299 301 305 303 300 299 298 285 280 283 282 283 279 281 283 285 284 282
354 352 341 327 324 332 333 335 335 323 316 311 304 298 296 304 305 313 312 308 307 307 306 303 303 304 306 303 301 299 300 301 298 286 281 288 282 279 277 271 277 280 281
347 336 324 319 317 320 337 340 338 341 333 321 311 307 310 312 314 297 297 305 307 305 306 306 304 302 302 304 303 301 299 297 295 298 294 291 282 279 278 279 284 284 283
330 314 309 310 311 323 340 340 339 345 321 309 303 299 299 301 305 308 308 308 302 305 305 303 294 296 301 300 297 299 297 295 290 285 280 286 288 284 284 280 283 282 281
314 303 302 307 311 319 335 337 337 317 307 302 295 298 308 306 308 316 319 315 316 308 310 310 311 310 309 309 308 305 301 299 297 294 283 278 285 287 283 278 276 280 282
298 303 306 308 310 309 327 335 331 310 306 305 300 293 310 316 317 323 325 323 318 312 315 318 314 309 305 301 306 305 299 295 294 294 285 273 285 292 288 264 258 267 275